WD6AWP Weather Reports


time (UTC)temp
C
wind
direction
speed
KPH
gust
KPH
rain 1hr
cm
rain 24hr
cm
rain mn
cm
humidity
%
barometer
mb
20260508181542 18 223 3.2 9.7 0.00 0.00 0.00 84 1016.1
20260508180035 18 229 0.0 9.7 0.00 0.00 0.00 85 1016.3
20260508174537 18 231 1.6 11.3 0.00 0.00 0.00 85 1016.4
20260508173028 18 203 3.2 11.3 0.00 0.00 0.00 85 1016.3
20260508171531 17 180 4.8 11.3 0.00 0.00 0.00 85 1016.3
20260508170027 17 167 0.0 0.0 0.00 0.00 0.00 86 1016.3
20260508164526 17 148 0.0 8.0 0.00 0.00 0.00 86 1016.4
20260508163023 17 165 0.0 0.0 0.00 0.00 0.00 86 1016.3
20260508161539 17 171 0.0 0.0 0.00 0.00 0.00 87 1016.3
20260508160021 17 130 0.0 11.3 0.00 0.00 0.00 88 1016.2
20260508154522 17 175 3.2 9.7 0.00 0.00 0.00 88 1016.2
20260508153034 16 165 0.0 4.8 0.00 0.00 0.00 88 1016.3
20260508151517 16 188 0.0 1.6 0.00 0.00 0.00 88 1016.4
20260508150016 16 146 0.0 3.2 0.00 0.00 0.00 89 1016.4
20260508144516 16 171 0.0 6.4 0.00 0.00 0.00 89 1016.3
20260508143014 16 163 3.2 9.7 0.00 0.00 0.00 89 1016.4
20260508141513 16 159 0.0 9.7 0.00 0.00 0.00 89 1016.2
20260508140012 16 132 3.2 11.3 0.00 0.00 0.00 89 1016.1
20260508134512 16 174 3.2 11.3 0.00 0.00 0.00 89 1016.1
20260508133011 16 163 0.0 11.3 0.00 0.00 0.00 89 1016.1
20260508131511 16 144 3.2 11.3 0.00 0.00 0.00 89 1015.8
20260508130011 16 178 1.6 12.9 0.00 0.00 0.00 89 1015.8
20260508124510 16 145 1.6 6.4 0.00 0.00 0.00 90 1015.6
20260508123014 16 176 4.8 14.5 0.00 0.00 0.00 90 1015.6
20260508121506 16 123 0.0 11.3 0.00 0.00 0.00 90 1015.5
20260508120006 16 156 4.8 11.3 0.00 0.00 0.00 90 1015.4
20260508114504 16 171 1.6 11.3 0.00 0.00 0.00 90 1015.4
20260508113006 16 165 3.2 12.9 0.00 0.00 0.00 90 1015.3
20260508111509 16 131 0.0 11.3 0.00 0.00 0.00 90 1015.3
20260508110010 16 102 1.6 11.3 0.00 0.00 0.00 90 1015.3
20260508104502 16 111 1.6 11.3 0.00 0.00 0.00 90 1015.2
20260508103002 16 124 3.2 12.9 0.00 0.00 0.00 90 1015.2
20260508101604 16 155 3.2 12.9 0.00 0.00 0.00 91 1015.4
20260508100130 16 125 1.6 11.3 0.00 0.00 0.00 90 1015.4
20260508094557 16 137 0.0 11.3 0.00 0.00 0.00 90 1015.3
20260508093058 16 96 1.6 12.9 0.00 0.00 0.00 90 1015.4
20260508091610 16 115 0.0 9.7 0.00 0.00 0.00 89 1015.4
20260508090055 16 164 4.8 14.5 0.00 0.00 0.00 89 1015.5
20260508084552 16 113 0.0 6.4 0.00 0.00 0.00 89 1015.7
20260508083051 16 169 0.0 0.0 0.00 0.00 0.00 89 1015.7
20260508081608 16 169 0.0 0.0 0.00 0.00 0.00 89 1015.8
20260508080049 16 171 0.0 0.0 0.00 0.00 0.00 89 1016.0
20260508074548 16 171 0.0 0.0 0.00 0.00 0.00 89 1016.0
20260508073048 16 168 0.0 0.0 0.00 0.00 0.00 90 1016.1
20260508071545 16 200 0.0 0.0 0.00 0.00 0.00 90 1016.1
20260508070043 16 200 0.0 0.0 0.00 0.00 0.00 90 1016.1
20260508064542 16 207 0.0 1.6 0.00 0.00 0.00 91 1016.1
20260508063042 16 225 1.6 8.0 0.00 0.00 0.00 91 1016.1
20260508061542 16 234 0.0 6.4 0.00 0.00 0.00 92 1016.0
20260508060055 16 232 0.0 6.4 0.00 0.00 0.00 91 1016.0
20260508054613 16 247 1.6 8.0 0.00 0.00 0.00 91 1016.1
20260508053049 16 283 3.2 11.3 0.00 0.00 0.00 91 1016.1
20260508051541 16 232 0.0 9.7 0.00 0.00 0.00 91 1016.0
20260508050039 16 260 1.6 12.9 0.00 0.00 0.00 91 1016.0
20260508044538 16 253 3.2 14.5 0.00 0.00 0.00 91 1015.8
20260508043038 16 236 4.8 11.3 0.00 0.00 0.00 91 1015.7
20260508041536 16 232 0.0 8.0 0.00 0.00 0.00 91 1015.5
20260508040036 16 213 3.2 11.3 0.00 0.00 0.00 91 1015.3
20260508034543 16 225 3.2 11.3 0.00 0.00 0.00 90 1015.1
20260508033036 16 217 6.4 12.9 0.00 0.00 0.00 90 1014.9
20260508031536 16 237 4.8 12.9 0.00 0.00 0.00 89 1014.7
20260508030037 16 233 4.8 16.1 0.00 0.00 0.00 88 1014.5
20260508024539 17 251 6.4 14.5 0.00 0.00 0.00 88 1014.3
20260508023032 17 224 4.8 17.7 0.00 0.00 0.00 87 1014.1
20260508021532 17 230 6.4 20.9 0.00 0.00 0.00 87 1014.0
20260508020032 17 221 6.4 17.7 0.00 0.00 0.00 86 1014.0
20260508014536 17 235 3.2 22.5 0.00 0.00 0.00 85 1013.9
20260508013029 18 252 4.8 17.7 0.00 0.00 0.00 84 1013.8
20260508011529 18 220 6.4 19.3 0.00 0.00 0.00 82 1013.9
20260508010043 18 244 6.4 20.9 0.00 0.00 0.00 81 1013.9
20260508004531 18 246 8.0 22.5 0.00 0.00 0.00 82 1013.7
20260508003024 19 267 14.5 25.7 0.00 0.00 0.00 80 1013.7
20260508001524 19 236 9.7 24.1 0.00 0.00 0.00 81 1013.7
20260508000023 20 279 11.3 29.0 0.00 0.00 0.00 80 1013.7
20260507234523 20 223 16.1 29.0 0.00 0.00 0.00 79 1013.8
20260507233021 20 236 16.1 27.4 0.00 0.00 0.00 79 1013.9
20260507231520 20 260 8.0 22.5 0.00 0.00 0.00 78 1014.0
20260507230025 20 244 8.0 22.5 0.00 0.00 0.00 79 1014.1
20260507224519 20 242 12.9 27.4 0.00 0.00 0.00 78 1014.1
20260507223017 20 238 12.9 24.1 0.00 0.00 0.00 77 1014.2
20260507221518 20 244 12.9 25.7 0.00 0.00 0.00 76 1014.5
20260507220013 21 259 9.7 22.5 0.00 0.00 0.00 77 1014.5
20260507214518 21 266 4.8 19.3 0.00 0.00 0.00 77 1014.7
20260507213010 21 221 6.4 19.3 0.00 0.00 0.00 76 1014.8
20260507211509 21 205 6.4 16.1 0.00 0.00 0.00 74 1014.9
20260507210106 21 242 6.4 16.1 0.00 0.00 0.00 77 1015.0
20260507204505 21 210 6.4 16.1 0.00 0.00 0.00 76 1015.2
20260507203003 21 229 4.8 14.5 0.00 0.00 0.00 76 1015.3
20260507201501 21 213 8.0 16.1 0.00 0.00 0.00 76 1015.3
20260507200100 20 198 8.0 14.5 0.00 0.00 0.00 76 1015.4
20260507194600 21 200 4.8 16.1 0.00 0.00 0.00 76 1015.6
20260507193057 21 189 8.0 17.7 0.00 0.00 0.00 77 1015.7
20260507191558 20 216 6.4 14.5 0.00 0.00 0.00 77 1015.9
20260507190056 21 218 6.4 17.7 0.00 0.00 0.00 76 1016.0
20260507184555 21 196 6.4 14.5 0.00 0.00 0.00 76 1016.2
20260507183053 20 220 3.2 11.3 0.00 0.00 0.00 77 1016.4